Theta_e
327 316 326 314 300 299 296 299 304 306 306 310 314 312 312 314 309 304 330 334 334 338 341 343 347 347 347 346 344 345 342 340 340 340 341 342 342 341 340 339 342 339 336 335 334 334 336 335 334
321 320 316 308 297 296 298 303 303 306 311 318 316 317 316 312 322 324 326 333 336 340 340 342 344 346 347 345 344 344 342 339 338 337 337 338 340 339 337 337 339 339 336 337 334 333 333 334 333
312 318 310 302 298 296 298 302 305 306 312 312 314 319 317 317 322 326 329 333 339 339 340 341 344 347 347 346 345 344 342 340 337 336 336 336 337 339 338 337 337 338 340 338 335 332 331 331 332
306 311 306 299 296 300 301 302 306 310 309 312 316 314 319 325 325 327 330 336 337 338 340 341 345 347 347 346 345 343 341 340 340 339 337 336 338 335 338 337 337 336 335 333 333 331 330 329 330
307 306 298 294 295 300 301 305 309 308 310 310 314 311 314 323 327 328 332 337 335 337 339 341 344 346 346 345 345 343 341 339 339 338 337 337 334 334 334 338 334 333 332 332 331 330 329 328 327
300 302 295 293 296 301 303 304 305 309 309 313 315 314 316 322 324 327 333 334 337 337 339 341 337 340 342 343 343 342 340 339 339 338 337 337 334 334 334 335 334 331 332 331 330 329 327 327 326
298 297 294 294 297 299 302 305 305 309 307 310 319 313 314 316 325 328 329 333 335 338 339 339 339 338 336 339 339 340 339 338 338 338 336 336 335 334 332 332 333 332 331 331 330 328 327 326 326
300 299 293 294 295 297 304 306 305 308 308 315 319 312 313 320 323 327 332 333 335 337 337 337 338 336 336 337 333 334 335 336 336 334 333 330 331 332 332 329 333 331 331 330 328 327 327 327 328
303 295 292 295 297 299 303 304 307 307 308 314 319 319 322 319 326 327 329 331 332 334 334 335 336 334 333 334 331 329 330 331 330 329 326 324 323 326 326 325 330 333 332 331 329 328 329 329 327
298 294 296 301 301 298 299 301 302 305 306 312 315 322 319 320 325 325 325 325 328 330 332 334 335 334 333 336 330 330 329 326 326 326 322 321 322 321 324 321 325 330 330 332 332 331 330 326 319
296 295 301 300 299 299 299 299 301 302 302 310 314 318 315 318 322 324 325 327 328 330 332 333 333 333 333 333 329 327 327 323 323 324 321 320 321 319 319 318 319 320 320 323 325 323 323 320 318
295 300 302 302 305 300 299 301 300 303 303 307 311 323 315 314 318 323 325 327 328 329 331 332 332 332 332 332 330 328 326 323 322 322 321 320 319 318 318 317 317 317 318 317 317 317 318 318 319
303 301 302 304 305 301 303 298 298 300 304 312 319 323 318 315 315 319 326 328 329 328 330 332 332 332 332 330 330 328 326 324 324 323 322 321 319 318 318 318 317 317 317 317 316 316 317 317 318
305 306 304 305 305 305 301 299 299 300 305 319 322 321 321 318 316 317 321 324 326 329 329 331 331 332 331 330 328 329 328 326 324 324 324 323 321 319 318 318 318 317 317 317 317 316 317 317 317
302 299 303 303 304 302 302 298 297 300 303 315 319 319 319 321 322 320 320 324 326 328 328 330 331 331 329 328 327 328 327 327 325 324 324 324 323 320 320 318 317 318 318 318 317 317 317 316 317
297 295 291 298 303 304 301 296 300 301 300 304 315 317 319 321 323 324 322 323 326 327 327 329 331 330 329 328 326 326 326 325 325 324 324 324 324 322 320 319 318 319 318 318 317 317 316 316 316
293 286 289 293 303 302 301 297 304 302 300 298 298 308 317 319 321 323 326 325 324 326 327 328 329 328 328 328 327 326 326 326 326 325 324 324 324 324 322 321 321 321 320 319 318 317 316 315 315
287 288 288 291 298 300 297 298 302 305 300 299 299 299 309 317 320 324 324 326 327 326 327 328 329 329 329 329 329 329 328 327 327 326 326 326 326 325 324 323 323 322 320 319 318 317 317 316 316
286 287 289 292 298 299 298 298 301 302 298 298 299 300 298 312 321 322 324 325 326 326 325 326 327 328 328 327 327 328 327 329 330 330 329 327 327 326 325 325 323 322 321 321 320 318 317 317 319
288 284 283 292 296 297 293 296 301 304 301 301 302 300 300 299 300 305 322 325 326 326 326 326 327 327 328 329 326 326 327 329 330 330 330 329 327 327 327 326 324 323 323 321 320 319 317 317 317
287 285 283 286 290 293 292 291 295 300 303 304 304 304 302 302 302 299 316 323 325 325 327 327 327 327 329 328 328 326 325 324 325 327 329 328 327 326 327 326 326 324 324 324 322 321 320 319 315
284 289 288 287 284 284 292 283 291 298 298 302 305 306 303 303 301 304 314 318 320 322 325 327 327 327 329 328 328 327 327 324 325 326 326 326 327 327 327 327 326 325 325 324 324 324 323 320 319
286 289 288 287 285 284 285 284 286 296 296 299 302 304 304 304 299 302 304 304 303 308 312 319 324 323 325 326 327 325 325 327 327 326 325 325 327 327 327 327 326 326 326 326 325 325 323 324 322
292 289 286 286 285 278 283 285 282 288 295 299 302 304 303 295 294 295 297 300 302 305 307 310 311 311 311 318 320 323 327 328 327 326 325 325 325 327 328 328 328 327 327 326 326 325 326 325 324
287 285 277 276 276 275 284 282 287 290 291 296 301 304 301 294 294 296 297 298 300 304 305 306 305 305 307 308 309 312 314 315 320 324 327 326 327 327 328 328 328 327 327 327 326 325 326 326 324
285 284 278 270 273 276 283 280 285 293 291 291 292 293 299 292 295 297 299 299 298 300 303 303 303 300 303 303 303 303 305 309 311 311 314 315 317 319 320 323 326 326 327 327 327 327 327 326 325
283 280 286 280 273 275 279 284 287 287 289 291 292 293 293 295 296 297 299 299 298 299 299 299 299 299 299 299 299 298 299 300 301 302 303 304 305 307 309 310 312 314 317 319 322 323 323 324 324
284 289 279 281 265 266 276 279 281 283 286 289 291 292 293 295 296 296 296 297 297 297 297 297 298 297 298 298 298 297 297 299 299 299 298 299 300 301 302 303 305 306 308 310 311 313 315 316 318
281 280 283 284 277 272 271 276 283 284 287 289 290 292 293 293 293 293 293 293 294 294 294 294 294 294 295 295 295 295 295 296 296 296 296 296 297 298 298 299 300 300 301 301 302 303 306 307 309
286 282 283 279 276 276 277 275 285 285 287 290 290 290 290 291 290 290 290 290 290 290 289 290 291 291 292 293 293 292 293 293 293 292 293 293 293 293 294 295 295 295 296 296 297 297 298 299 299
Wind_Speed
7 3 2 5 5 5 3 5 3 4 3 3 3 5 6 4 4 4 3 6 16 13 11 11 16 17 17 16 16 14 14 13 12 11 12 12 12 13 13 12 11 13 12 14 13 13 12 11 10
4 2 5 2 5 2 4 4 2 6 2 5 6 4 5 2 3 6 5 8 17 13 11 8 15 17 17 18 15 14 14 13 12 11 10 10 10 11 13 10 11 12 11 14 12 11 10 10 10
1 3 4 4 3 4 3 3 6 2 6 1 4 5 1 4 3 8 6 12 14 12 10 8 16 17 18 17 16 15 15 14 13 12 11 11 10 10 12 10 10 9 13 13 10 9 8 8 10
3 5 5 4 5 6 4 3 1 4 1 1 5 6 2 4 9 7 12 14 13 11 9 11 16 18 18 17 16 16 14 14 12 10 11 11 10 10 11 12 9 8 9 10 8 7 7 7 9
4 3 3 1 5 5 4 4 4 3 2 3 2 4 2 4 8 15 13 12 13 10 8 10 13 16 16 16 15 16 15 14 14 11 10 10 11 10 9 13 10 8 8 7 6 5 5 6 7
4 3 3 3 6 5 6 4 3 5 3 3 6 5 3 5 11 11 11 10 10 12 10 9 10 11 14 14 14 14 15 14 12 10 12 9 11 10 10 10 9 8 7 6 4 3 3 4 5
6 4 4 4 4 6 4 7 3 7 3 3 8 5 1 3 7 11 10 8 8 10 12 7 7 9 11 10 11 12 12 12 12 10 10 9 7 7 9 8 7 9 6 4 3 1 0 2 3
5 4 3 4 3 5 4 8 3 4 4 2 2 7 5 6 8 9 11 10 9 12 12 12 8 6 6 7 11 10 10 9 10 10 10 8 7 7 6 5 3 3 3 3 3 3 3 4 5
4 3 4 5 6 4 4 5 6 3 5 2 3 5 3 19 13 11 10 11 12 11 12 11 11 7 6 6 6 8 9 9 9 8 9 7 2 4 6 4 6 7 6 6 5 5 5 5 7
4 5 9 5 5 4 2 4 7 3 2 1 1 4 14 18 17 16 16 16 16 15 14 11 11 9 8 6 6 6 5 4 5 5 6 4 4 3 4 4 6 6 7 7 6 6 6 5 3
4 7 5 4 3 2 1 3 5 1 2 4 5 10 14 16 14 15 12 15 15 14 12 12 9 9 9 7 4 3 3 3 4 6 6 4 3 2 2 1 2 2 4 2 3 4 3 4 4
3 6 4 6 4 3 2 2 6 3 2 4 6 11 14 15 15 15 15 17 16 15 14 14 10 10 9 5 5 5 4 4 3 5 6 4 3 3 3 2 4 3 3 4 3 3 4 5 5
4 4 5 6 4 2 1 2 2 6 5 7 9 11 14 16 12 8 9 12 13 15 14 13 10 10 9 8 6 5 5 5 5 5 5 4 4 4 4 4 4 4 3 3 4 4 4 5 5
3 6 4 5 5 2 4 4 2 2 2 4 7 12 10 13 12 6 8 13 14 13 13 12 11 10 9 8 8 7 5 4 4 4 6 6 5 4 4 4 5 4 4 4 4 4 4 4 4
2 4 4 7 6 4 4 6 7 6 1 5 6 6 4 7 8 15 14 13 14 13 13 14 13 10 10 9 7 6 5 5 5 5 5 6 6 6 5 4 4 5 4 5 4 4 3 4 4
4 1 6 7 11 7 8 15 9 7 5 6 7 7 7 9 11 8 11 12 12 11 14 13 12 12 11 10 7 5 5 5 5 5 4 7 7 6 5 4 5 4 4 4 3 3 4 4 4
6 7 11 3 11 6 15 5 13 8 7 8 4 8 9 7 8 9 8 9 10 11 12 12 12 13 13 10 7 6 7 5 5 4 4 6 7 7 6 5 5 5 4 4 4 4 4 3 4
5 8 5 14 6 6 10 11 5 10 11 10 9 5 8 9 16 10 8 7 8 10 10 12 11 12 12 8 7 6 5 5 4 5 5 7 7 8 7 5 6 4 3 3 3 5 4 4 4
2 5 13 3 6 7 16 11 17 8 7 9 8 8 7 10 9 8 9 9 7 8 9 12 12 10 9 6 8 7 8 7 6 6 9 9 8 8 9 7 5 5 5 6 6 3 5 4 3
13 5 7 6 4 5 3 14 14 14 12 10 12 9 9 5 6 6 11 12 13 12 11 12 13 12 11 8 4 3 4 4 5 6 6 8 8 8 8 7 6 6 5 5 5 5 2 3 4
15 18 4 3 4 3 2 7 10 10 11 7 8 7 6 10 8 3 7 13 11 12 15 12 11 11 11 8 4 2 2 1 2 3 4 5 7 7 8 6 6 6 6 7 8 6 8 8 3
13 8 10 10 2 4 5 11 12 16 13 18 17 13 9 10 5 2 4 7 9 7 7 8 8 8 10 8 7 7 7 6 3 4 3 5 7 7 8 8 8 8 6 8 7 6 9 6 10
6 6 14 11 3 4 5 3 6 11 20 22 15 11 9 8 9 7 6 6 5 5 5 5 6 5 2 5 4 4 4 4 3 3 5 5 5 7 7 6 7 9 7 8 8 7 8 9 9
5 8 3 5 8 8 15 9 5 7 10 13 9 14 10 10 9 8 7 7 7 6 6 8 8 5 5 4 2 1 3 4 4 4 4 3 3 4 6 6 8 7 8 9 9 9 11 10 10
10 6 6 9 9 17 14 7 15 2 3 5 14 14 11 12 12 12 12 9 7 9 7 7 8 8 6 5 6 5 4 3 3 3 2 3 3 2 5 4 6 6 7 8 8 8 10 11 10
12 8 2 6 11 19 6 14 12 7 5 2 4 8 7 8 7 8 7 10 7 7 8 10 9 8 7 6 6 5 6 3 3 4 3 3 4 4 6 4 4 5 5 5 5 6 8 9 9
6 13 14 4 2 5 6 15 6 2 4 4 5 5 11 12 9 9 9 7 8 9 7 6 11 12 8 8 6 6 6 6 5 6 5 4 5 4 5 6 6 6 6 6 5 3 6 6 8
7 7 7 7 4 5 5 9 13 6 6 4 6 6 7 11 12 9 8 9 8 10 9 8 6 12 10 8 6 5 5 6 6 5 6 5 4 5 6 5 5 5 5 6 6 4 5 5 4
5 13 6 4 5 5 4 6 3 7 6 10 9 7 10 11 11 11 10 10 10 10 9 8 8 10 11 6 6 7 6 6 6 5 5 6 6 7 6 6 6 7 7 7 6 5 6 6 6
6 14 15 5 5 4 1 5 4 7 6 8 10 9 9 11 11 10 10 10 10 10 8 9 8 12 7 6 7 9 9 8 7 6 6 6 5 5 6 6 7 7 6 6 5 5 5 4 5
Wind_Direction
330 348 87 39 63 67 255 267 300 295 2 349 64 137 157 96 155 204 109 134 132 140 150 148 149 146 138 133 131 124 120 117 115 115 113 112 110 109 106 106 106 100 110 101 96 100 97 91 78
318 128 41 82 91 109 266 257 296 248 142 165 74 68 40 87 84 113 113 152 136 138 144 145 143 146 140 137 136 130 124 122 120 118 125 122 121 122 109 106 106 115 124 109 99 99 100 89 74
258 46 75 92 116 187 218 246 277 251 170 192 94 57 121 145 41 144 130 142 134 135 144 144 145 148 142 143 144 139 134 132 130 132 133 134 133 141 120 114 108 93 105 103 98 95 89 81 73
36 11 34 90 197 249 208 251 235 97 289 163 127 69 355 265 148 143 136 136 132 138 142 148 150 149 147 151 149 141 140 133 137 139 144 138 139 138 109 112 109 104 106 100 96 89 78 66 59
26 52 56 346 270 259 285 297 112 314 258 121 149 162 48 25 97 128 135 137 140 139 139 150 149 150 151 153 153 149 144 143 134 148 129 151 147 147 142 129 121 115 110 105 98 86 66 52 47
37 89 76 237 262 301 308 288 247 170 269 151 77 95 146 131 123 138 136 138 144 142 144 147 144 146 152 157 154 151 147 148 140 147 139 138 157 155 153 149 142 138 137 133 124 102 64 38 32
119 94 203 206 265 320 272 328 216 166 176 243 146 103 103 170 147 136 133 118 133 140 149 142 146 151 148 147 143 149 150 153 152 145 146 150 170 157 169 169 168 159 145 154 166 180 314 349 354
111 108 194 232 214 264 291 331 340 139 192 108 155 168 197 178 143 126 128 127 139 152 158 159 151 135 140 151 148 147 154 155 151 148 154 160 167 176 160 167 137 149 157 203 216 245 280 301 314
128 91 210 224 158 242 333 335 336 319 114 39 334 157 194 133 132 128 142 147 158 165 166 160 156 143 141 143 157 154 155 165 161 146 160 167 130 192 176 175 186 183 200 220 232 249 272 294 317
146 164 205 215 181 203 287 342 313 55 123 14 64 23 124 139 151 153 168 170 171 174 177 168 162 158 151 158 153 163 166 168 167 155 169 164 156 152 168 201 215 208 215 222 232 242 261 296 307
185 194 200 199 203 229 207 315 306 212 193 211 204 154 149 155 162 163 170 181 180 174 177 179 168 165 162 161 160 161 168 168 168 168 169 179 167 181 169 223 259 260 256 256 276 300 297 295 303
223 228 194 181 195 187 277 314 325 296 205 278 230 175 152 167 171 177 172 178 181 181 184 182 174 170 174 161 172 171 171 174 177 179 176 167 177 190 205 211 229 232 218 234 242 258 274 283 280
233 234 195 168 193 195 139 227 251 272 302 315 152 159 180 179 176 173 175 173 172 183 185 187 181 181 179 173 175 177 183 182 186 177 183 172 183 197 201 221 218 225 225 227 247 252 262 265 265
293 225 173 186 178 197 191 229 129 289 2 79 155 179 179 193 173 141 178 181 181 181 181 181 188 190 184 184 184 188 186 187 184 188 190 186 186 194 200 216 218 222 212 221 227 231 240 253 259
283 299 257 207 191 225 152 254 214 228 128 165 188 178 195 210 184 190 186 191 188 186 181 180 185 186 187 188 189 192 188 180 192 206 195 194 192 202 205 215 222 224 213 235 236 248 254 269 265
185 186 234 183 163 225 145 241 216 190 188 187 216 199 202 213 226 207 186 197 192 186 186 184 183 185 189 193 184 187 185 183 196 189 197 204 204 194 197 206 218 216 216 212 227 240 258 250 254
217 214 224 299 202 164 192 229 217 190 165 162 178 216 206 215 233 222 204 187 188 190 185 189 188 185 187 193 189 188 182 197 195 181 193 201 205 198 203 211 223 211 217 213 213 229 210 243 258
204 223 239 218 208 218 206 231 264 212 186 196 188 203 206 198 225 220 216 208 183 190 185 188 190 192 187 188 191 196 194 198 197 197 197 199 207 205 207 220 220 204 219 228 225 226 223 231 241
344 314 238 206 223 180 222 217 232 229 216 205 204 199 193 206 229 204 201 199 191 183 182 189 188 190 184 178 190 198 203 202 210 215 209 201 208 205 211 216 208 196 207 224 212 215 228 256 226
265 266 288 255 241 212 228 233 239 212 215 202 206 203 188 194 198 222 212 184 196 190 191 192 194 186 190 191 184 168 181 192 190 193 206 205 205 205 213 217 217 204 215 217 219 207 245 256 190
233 237 245 304 321 247 350 246 223 241 240 218 235 203 207 192 218 280 216 195 179 187 196 196 192 181 188 184 146 111 83 43 173 195 200 199 198 204 210 212 221 212 215 225 213 205 212 251 235
237 203 214 262 326 238 168 263 209 209 228 226 225 228 198 213 185 93 180 169 182 185 163 175 178 183 192 172 187 198 210 216 208 222 210 206 198 206 207 214 211 222 214 236 231 214 219 215 250
238 202 201 227 209 334 235 256 237 183 224 221 215 212 215 196 163 149 132 106 84 95 108 122 123 107 217 160 162 181 221 241 227 223 233 229 218 214 210 213 221 227 227 232 232 225 215 222 241
295 262 232 196 214 244 219 211 210 200 205 220 208 210 194 154 142 129 118 114 100 92 93 92 94 62 51 85 111 143 247 256 235 247 254 250 249 250 238 226 231 236 234 241 237 242 243 231 232
204 223 169 189 189 231 187 193 239 246 203 206 208 204 185 159 152 147 149 137 130 120 109 104 103 81 58 62 74 58 45 32 23 347 306 270 259 242 259 249 240 240 240 243 242 237 239 239 241
206 235 215 182 193 229 108 223 217 223 133 118 259 247 142 123 134 135 120 124 112 93 122 124 108 87 73 61 52 57 57 45 50 43 10 21 17 4 0 358 335 293 260 240 240 255 264 259 246
191 208 238 307 326 170 181 241 311 143 94 98 59 106 136 132 121 116 98 79 86 90 67 92 108 102 84 71 55 45 45 48 44 43 37 17 12 358 6 5 359 358 344 343 327 279 261 261 271
222 139 176 219 178 223 218 222 219 178 169 136 130 109 99 115 111 104 96 97 87 79 81 69 78 93 95 96 93 65 64 59 47 39 34 30 23 9 11 8 3 3 358 358 349 339 326 328 313
186 240 261 217 198 182 156 240 197 198 201 171 139 122 118 110 107 107 99 88 85 81 81 78 70 80 65 61 66 82 55 53 58 56 45 18 10 3 11 8 13 15 5 12 6 357 351 346 338
249 234 210 259 177 220 230 273 349 249 180 127 117 105 95 98 100 95 92 92 83 78 68 66 65 63 61 65 55 51 42 35 38 32 22 19 18 2 3 5 15 9 4 357 1 349 338 332 323